W7YP Weather Reports


time (UTC)temp
F
wind
direction
speed
knots
gust
knots
rain 1hr
in
rain 24hr
in
rain mn
in
humidity
%
barometer
mb
20260903040957 51 262 0.0 0.0 0.00 0.44 0.44 95 1011.5
20260903040500 51 262 0.0 0.0 0.00 0.44 0.44 95 1011.6
20260903035957 51 262 0.0 0.0 0.00 0.44 0.44 95 1011.7
20260903035501 51 262 0.0 0.0 0.00 0.44 0.44 95 1011.7
20260903034948 51 262 0.0 0.0 0.00 0.44 0.44 95 1011.7
20260903034448 51 262 0.0 0.0 0.00 0.44 0.44 95 1011.7
20260903033933 51 262 0.0 0.0 0.00 0.44 0.44 95 1011.8
20260903033423 51 262 0.0 0.0 0.00 0.44 0.44 95 1011.8
20260903032917 51 262 0.0 0.0 0.00 0.44 0.44 95 1011.8
20260903032411 51 262 0.0 0.0 0.00 0.44 0.44 95 1011.8
20260903031906 51 262 0.0 0.0 0.00 0.44 0.44 95 1011.7
20260903031359 51 262 0.0 0.0 0.00 0.44 0.44 95 1011.8
20260903030854 51 262 0.0 0.0 0.00 0.44 0.44 95 1011.7
20260903030343 51 262 0.0 0.0 0.00 0.44 0.44 95 1011.7
20260903025844 51 262 0.0 0.0 0.00 0.44 0.44 95 1011.6
20260903025344 51 262 0.0 0.0 0.00 0.44 0.44 95 1011.6
20260903024844 51 262 0.0 0.0 0.00 0.44 0.44 94 1011.5
20260903024829 51 262 0.0 0.0 0.00 0.44 0.44 94 1011.5
20260903023844 51 262 0.0 0.0 0.00 0.44 0.44 94 1011.5
20260903023342 51 262 0.0 0.0 0.00 0.44 0.44 94 1011.4
20260903022830 51 262 0.0 0.0 0.00 0.44 0.44 95 1011.4
20260903022330 51 262 0.0 0.0 0.00 0.44 0.44 95 1011.2
20260903021833 51 262 0.0 0.0 0.00 0.44 0.44 94 1011.2
20260903021321 51 262 0.0 0.0 0.00 0.44 0.44 94 1011.2
20260903020821 51 262 0.0 0.0 0.00 0.44 0.44 94 1011.2
20260903020321 51 262 0.0 0.0 0.00 0.44 0.44 94 1011.2
20260903015815 51 262 0.0 0.0 0.01 0.44 0.44 94 1011.2
20260903015316 51 262 0.0 0.0 0.01 0.44 0.44 94 1011.2
20260903014816 51 262 0.0 0.0 0.01 0.44 0.44 94 1011.1
20260903014311 52 262 0.0 0.9 0.02 0.44 0.44 94 1011.1
20260903013814 52 262 0.0 0.9 0.02 0.44 0.44 94 1011.1
20260903013801 52 261 0.0 0.9 0.03 0.44 0.44 94 1011.1
20260903012757 52 261 0.0 1.7 0.03 0.44 0.44 94 1011.1
20260903012257 52 260 0.0 1.7 0.04 0.44 0.44 94 1011.1
20260903011757 52 260 0.0 0.0 0.05 0.44 0.44 94 1011.1
20260903011515 52 260 0.0 1.7 0.06 0.44 0.44 94 1011.1
20260903010757 52 260 0.0 1.7 0.06 0.44 0.44 94 1011.1
20260903010257 52 0 0.0 1.7 0.08 0.44 0.44 95 1011.2
20260903005752 52 347 0.0 0.0 0.08 0.43 0.43 95 1011.1
20260903005245 52 347 0.0 0.9 0.10 0.43 0.43 95 1011.2
20260903004954 52 347 0.0 0.9 0.12 0.43 0.43 95 1011.4
20260903004227 52 347 0.0 0.0 0.13 0.42 0.42 95 1011.4
20260903003949 52 347 0.0 0.0 0.14 0.42 0.42 94 1011.4
20260903003228 52 347 0.0 0.0 0.15 0.41 0.41 94 1011.5
20260903002912 52 347 0.0 0.0 0.16 0.39 0.39 94 1011.6
20260903002751 52 347 0.0 0.0 0.16 0.41 0.41 94 1011.5
20260903002307 52 347 0.0 0.0 0.16 0.40 0.40 94 1011.6
20260903001218 52 347 0.0 0.0 0.16 0.38 0.38 94 1011.6
20260903000939 52 347 0.0 0.0 0.16 0.37 0.38 94 1011.6
20260902235717 52 347 0.0 4.3 0.15 0.35 0.35 93 1011.5
20260902235214 52 51 0.0 3.5 0.13 0.33 0.33 93 1011.5
20260902234710 52 341 0.9 7.0 0.11 0.31 0.31 93 1011.6
20260902234209 52 178 1.7 7.0 0.09 0.29 0.29 93 1011.6
20260902233704 52 137 0.9 5.2 0.08 0.27 0.28 93 1011.4
20260902233205 52 261 0.0 5.2 0.07 0.26 0.26 93 1011.4
20260902232705 53 56 0.9 6.1 0.07 0.25 0.25 93 1011.2
20260902232206 53 171 0.9 6.1 0.08 0.24 0.24 93 1011.4
20260902231705 53 260 0.9 10.4 0.08 0.23 0.23 92 1011.4
20260902231427 53 162 1.7 11.3 0.08 0.22 0.22 92 1011.4
20260902230706 53 179 3.5 11.3 0.08 0.21 0.21 92 1011.2
20260902230201 53 223 1.7 13.9 0.10 0.21 0.21 92 1011.0
20260902225700 53 169 3.5 13.9 0.10 0.20 0.20 92 1011.1
20260902225201 53 168 2.6 9.6 0.12 0.20 0.20 92 1010.9
20260902224701 53 0 3.5 13.9 0.15 0.20 0.20 92 1010.6
20260902224201 53 42 3.5 13.9 0.18 0.20 0.20 92 1010.7
20260902223701 53 152 3.5 12.2 0.18 0.19 0.19 92 1010.7
20260902223201 53 169 2.6 14.8 0.18 0.19 0.19 92 1010.6
20260902222657 53 263 2.6 15.6 0.17 0.18 0.18 92 1010.3
20260902222157 54 37 4.3 15.6 0.16 0.16 0.16 92 1010.2
20260902221656 54 152 4.3 16.5 0.15 0.15 0.15 92 1010.2
20260902221157 54 327 5.2 16.5 0.14 0.14 0.14 92 1009.9
20260902220657 54 310 5.2 14.8 0.13 0.13 0.13 91 1009.7
20260902220157 54 101 6.1 15.6 0.11 0.11 0.12 91 1009.5
20260902215657 54 263 7.0 15.6 0.10 0.10 0.10 90 1009.5
20260902215157 54 342 5.2 18.2 0.08 0.08 0.08 89 1009.7
20260902214700 55 49 3.5 18.2 0.04 0.04 0.05 88 1009.2
20260902214419 56 241 7.0 15.6 0.02 0.02 0.02 86 1009.3
20260902213652 56 74 7.0 14.8 0.01 0.01 0.01 84 1009.2
20260902213153 57 207 7.0 20.9 0.01 0.01 0.01 83 1009.3
20260902212915 59 344 5.2 20.9 0.01 0.01 0.01 81 1009.0
20260902212509 60 342 6.1 19.1 0.00 0.00 0.00 77 1008.2
20260902212402 61 150 7.8 20.9 0.00 0.00 0.00 73 1008.5
20260902211149 62 205 6.1 22.6 0.00 0.00 0.00 70 1008.2
20260902210905 64 322 7.8 22.6 0.00 0.00 0.00 67 1007.9
20260902210143 65 339 3.5 24.3 0.00 0.00 0.00 62 1007.2
20260902205644 67 242 5.2 24.3 0.00 0.00 0.00 59 1007.4
20260902205144 69 54 5.2 14.8 0.00 0.00 0.00 56 1007.4
20260902204908 71 321 2.6 11.3 0.00 0.00 0.00 55 1007.1
20260902204144 72 326 2.6 11.3 0.00 0.00 0.00 53 1007.1
20260902203900 73 342 0.9 6.1 0.00 0.00 0.00 53 1006.9
20260902203405 73 33 2.6 7.0 0.00 0.00 0.00 51 1007.0
20260902202640 73 71 1.7 7.0 0.00 0.00 0.00 51 1006.9
20260902202140 73 214 1.7 9.6 0.00 0.00 0.00 51 1006.8
20260902201904 73 24 2.6 9.6 0.00 0.00 0.00 53 1007.0
20260902201136 73 348 0.9 13.9 0.00 0.00 0.00 52 1007.0
20260902200636 73 183 3.5 13.9 0.00 0.00 0.00 50 1006.8
20260902200136 73 134 0.0 5.2 0.00 0.00 0.00 51 1006.8
20260902195635 73 209 1.7 5.2 0.00 0.00 0.00 49 1006.8
20260902195136 73 26 0.9 9.6 0.00 0.00 0.00 50 1006.9
20260902194859 74 325 0.0 9.6 0.00 0.00 0.00 50 1007.0
20260902194136 74 11 0.9 7.8 0.00 0.00 0.00 48 1007.1
20260902193632 74 326 0.9 7.0 0.00 0.00 0.00 47 1007.3
20260902193127 74 5 1.7 7.0 0.00 0.00 0.00 48 1007.3
20260902192621 74 240 0.9 8.7 0.00 0.00 0.00 49 1007.3
20260902192122 74 339 2.6 8.7 0.00 0.00 0.00 47 1007.4
20260902191622 74 200 0.9 10.4 0.00 0.00 0.00 51 1007.4
20260902191123 74 111 1.7 10.4 0.00 0.00 0.00 51 1007.4
20260902190617 74 167 1.7 6.1 0.00 0.00 0.00 52 1007.6
20260902190113 74 53 0.9 4.3 0.00 0.00 0.00 50 1007.6
20260902185603 73 279 0.0 6.1 0.00 0.00 0.00 50 1007.6
20260902185103 73 184 0.9 7.0 0.00 0.00 0.00 52 1007.7
20260902185045 73 334 2.6 7.0 0.00 0.00 0.00 52 1007.8
20260902184105 73 293 0.9 7.8 0.00 0.00 0.00 54 1007.6
20260902183604 73 220 0.9 7.8 0.00 0.00 0.00 53 1007.7
20260902183104 73 33 2.6 7.8 0.00 0.00 0.00 50 1007.7
20260902182559 73 30 0.0 2.6 0.00 0.00 0.00 56 1007.7
20260902182059 72 33 0.0 3.5 0.00 0.00 0.00 54 1007.8
20260902181559 72 36 0.0 6.1 0.00 0.00 0.00 53 1007.8
20260902181059 72 328 0.9 6.1 0.00 0.00 0.00 54 1007.8
20260902180554 71 350 0.0 5.2 0.00 0.00 0.00 55 1007.8
20260902180057 71 301 0.9 4.3 0.00 0.00 0.00 57 1007.8
20260902175550 71 148 0.0 1.7 0.00 0.00 0.00 56 1007.8
20260902175050 71 88 0.0 0.9 0.00 0.00 0.00 57 1007.8
20260902174550 70 89 0.0 1.7 0.00 0.00 0.00 56 1007.8
20260902174314 70 88 0.0 1.7 0.00 0.00 0.00 58 1007.8
20260902173551 70 88 0.0 2.6 0.00 0.00 0.00 57 1007.9
20260902173050 69 88 0.0 3.5 0.00 0.00 0.00 58 1007.9
20260902172546 69 81 0.0 3.5 0.00 0.00 0.00 60 1008.0
20260902172036 69 57 0.0 2.6 0.00 0.00 0.00 58 1008.0
20260902171752 69 57 0.0 2.6 0.00 0.00 0.00 57 1008.0
20260902171253 69 159 0.0 1.7 0.00 0.00 0.00 60 1008.0
20260902170537 68 154 0.0 2.6 0.00 0.00 0.00 63 1008.2
20260902170036 68 148 0.0 2.6 0.00 0.00 0.00 62 1008.1
20260902165753 67 179 0.0 3.5 0.00 0.00 0.00 64 1008.1
20260902165011 67 88 0.0 0.9 0.00 0.00 0.00 66 1008.2
20260902164506 67 87 0.0 0.9 0.00 0.00 0.00 67 1008.2
20260902164006 67 86 0.0 0.9 0.00 0.00 0.00 68 1008.2
20260902163507 66 86 0.0 0.9 0.00 0.00 0.00 70 1008.1
20260902163225 66 87 0.0 0.9 0.00 0.00 0.00 70 1008.1
20260902162507 65 92 0.0 1.7 0.00 0.00 0.00 69 1008.2
20260902162010 64 91 0.0 1.7 0.00 0.00 0.00 69 1008.2
20260902161503 64 298 0.0 1.7 0.00 0.00 0.00 71 1008.2
20260902161003 63 296 0.0 0.0 0.00 0.00 0.00 75 1008.2
20260902160503 62 296 0.0 0.0 0.00 0.00 0.00 75 1008.2
20260902160004 62 296 0.0 0.0 0.00 0.00 0.00 76 1008.1
20260902155501 61 296 0.0 0.0 0.00 0.00 0.00 75 1008.3
20260902155220 61 296 0.0 0.0 0.00 0.00 0.00 77 1008.3
20260902154717 60 296 0.0 0.0 0.00 0.00 0.00 76 1008.5
20260902153949 60 296 0.0 0.9 0.00 0.00 0.00 78 1008.5
20260902153444 60 297 0.0 0.0 0.00 0.00 0.00 76 1008.6
20260902152944 59 297 0.0 0.0 0.00 0.00 0.00 80 1008.7
20260902152447 59 297 0.0 0.0 0.00 0.00 0.00 79 1008.7
20260902151944 58 297 0.0 0.0 0.00 0.00 0.00 80 1008.8
20260902151925 57 297 0.0 0.0 0.00 0.00 0.00 81 1008.9
20260902150944 57 297 0.0 0.0 0.00 0.00 0.00 82 1008.9
20260902150442 56 297 0.0 0.0 0.00 0.00 0.00 87 1009.0
20260902145940 56 297 0.0 1.7 0.00 0.00 0.00 88 1009.0
20260902145440 55 297 0.0 1.7 0.00 0.00 0.00 93 1009.1
20260902145204 55 300 0.0 0.0 0.00 0.00 0.00 94 1009.1
20260902144438 55 300 0.0 0.0 0.00 0.00 0.00 94 1009.1
20260902143935 54 300 0.0 0.0 0.00 0.00 0.00 94 1009.1
20260902143431 54 300 0.0 0.0 0.00 0.00 0.00 93 1009.1
20260902142931 54 300 0.0 0.0 0.00 0.00 0.00 93 1009.2
20260902142434 53 300 0.0 0.0 0.00 0.00 0.00 93 1009.3
20260902141931 53 300 0.0 0.0 0.00 0.00 0.00 93 1009.2
20260902141431 53 300 0.0 0.0 0.00 0.00 0.00 93 1009.3
20260902141200 53 300 0.0 0.0 0.00 0.00 0.00 93 1009.3
20260902140426 52 300 0.0 0.0 0.00 0.00 0.00 92 1009.2
20260902135917 52 300 0.0 0.0 0.00 0.00 0.00 91 1009.2
20260902135412 52 300 0.0 0.0 0.00 0.00 0.00 91 1009.3
20260902134902 52 300 0.0 0.0 0.00 0.00 0.00 90 1009.3
20260902134356 51 300 0.0 0.0 0.00 0.00 0.00 90 1009.3
20260902133856 51 300 0.0 0.0 0.00 0.00 0.00 90 1009.5
20260902133357 51 300 0.0 0.0 0.00 0.00 0.00 89 1009.3
20260902132857 51 300 0.0 0.0 0.00 0.00 0.00 89 1009.3
20260902132353 51 300 0.0 0.0 0.00 0.00 0.00 89 1009.5
20260902131852 52 300 0.0 0.0 0.00 0.00 0.00 88 1009.5
20260902131355 52 300 0.0 0.0 0.00 0.00 0.00 88 1009.5
20260902130833 52 300 0.0 0.0 0.00 0.00 0.00 88 1009.6
20260902130332 52 300 0.0 0.0 0.00 0.00 0.00 88 1009.6
20260902125828 52 300 0.0 0.0 0.00 0.00 0.00 88 1009.6
20260902125305 52 300 0.0 0.0 0.00 0.00 0.00 88 1009.7
20260902124804 52 300 0.0 0.0 0.00 0.00 0.00 88 1009.6
20260902124303 52 300 0.0 0.0 0.00 0.00 0.00 87 1009.6
20260902123801 53 300 0.0 0.0 0.00 0.00 0.00 87 1009.6
20260902123259 53 300 0.0 0.0 0.00 0.00 0.00 87 1009.6
20260902123022 53 300 0.0 0.0 0.00 0.00 0.00 87 1009.5
20260902122305 53 300 0.0 0.0 0.00 0.00 0.00 86 1009.5
20260902121759 53 300 0.0 0.0 0.00 0.00 0.00 86 1009.5
20260902121746 53 300 0.0 0.0 0.00 0.00 0.00 86 1009.6
20260902121018 53 300 0.0 0.0 0.00 0.00 0.00 86 1009.6
20260902120459 53 300 0.0 0.0 0.00 0.00 0.00 85 1009.6
20260902115725 53 300 0.0 0.0 0.00 0.00 0.00 86 1009.6
20260902115219 53 300 0.0 0.0 0.00 0.00 0.00 85 1009.7
20260902114705 53 300 0.0 0.0 0.00 0.00 0.00 85 1009.7
20260902114159 54 300 0.0 0.0 0.00 0.00 0.00 85 1009.7
20260902113655 54 300 0.0 0.0 0.00 0.00 0.00 84 1009.8
20260902113155 54 300 0.0 0.0 0.00 0.00 0.00 84 1009.8
20260902112908 54 300 0.0 0.0 0.00 0.00 0.00 84 1009.9
20260902112145 54 300 0.0 0.0 0.00 0.00 0.00 84 1010.0
20260902111643 54 300 0.0 0.0 0.00 0.00 0.00 83 1010.1
20260902111400 54 300 0.0 0.0 0.00 0.00 0.00 83 1010.1
20260902110625 55 300 0.0 0.0 0.00 0.00 0.00 83 1010.1
20260902110121 55 300 0.0 0.0 0.00 0.00 0.00 83 1010.1
20260902105838 55 300 0.0 0.0 0.00 0.00 0.00 83 1010.2
20260902105124 55 300 0.0 0.0 0.00 0.00 0.00 83 1010.2
20260902104621 55 300 0.0 0.0 0.00 0.00 0.00 82 1010.3
20260902104116 56 300 0.0 0.0 0.00 0.00 0.00 82 1010.3
20260902103620 56 300 0.0 0.0 0.00 0.00 0.00 82 1010.5
20260902103059 56 300 0.0 0.0 0.00 0.00 0.00 82 1010.5
20260902102557 56 300 0.0 0.0 0.00 0.00 0.00 82 1010.5
20260902102057 56 300 0.0 0.0 0.00 0.00 0.00 82 1010.3
20260902101557 56 300 0.0 0.0 0.00 0.00 0.00 82 1010.3
20260902101317 56 300 0.0 0.0 0.00 0.00 0.00 83 1010.5
20260902100553 56 300 0.0 0.0 0.00 0.00 0.00 83 1010.6
20260902100055 56 300 0.0 0.0 0.00 0.00 0.00 84 1010.6
20260902095552 56 300 0.0 0.0 0.00 0.00 0.00 84 1010.6
20260902095053 57 300 0.0 0.0 0.00 0.00 0.00 84 1010.7
20260902094811 57 300 0.0 0.0 0.00 0.00 0.00 83 1010.7
20260902094043 57 300 0.0 0.0 0.00 0.00 0.00 84 1010.7
20260902093536 57 300 0.0 0.9 0.00 0.00 0.00 84 1010.8
20260902093255 56 300 0.0 0.9 0.00 0.00 0.00 83 1010.8
20260902092519 57 300 0.0 0.0 0.00 0.00 0.00 83 1010.6
20260902092023 57 300 0.0 0.0 0.00 0.00 0.00 83 1010.5
20260902091519 57 300 0.0 0.0 0.00 0.00 0.00 84 1010.7
20260902091027 57 300 0.0 0.0 0.00 0.00 0.00 84 1010.7
20260902090520 57 300 0.0 0.0 0.00 0.00 0.00 83 1010.9
20260902090031 57 300 0.0 0.0 0.00 0.00 0.00 83 1011.0
20260902085510 57 300 0.0 0.0 0.00 0.00 0.00 83 1011.0
20260902085017 57 300 0.0 0.0 0.00 0.00 0.00 85 1010.9
20260902084510 57 300 0.0 0.0 0.00 0.00 0.00 85 1011.0
20260902084239 57 300 0.0 1.7 0.00 0.00 0.00 86 1011.0
20260902083501 57 300 0.0 1.7 0.00 0.00 0.00 85 1010.9
20260902083002 57 300 0.0 0.0 0.00 0.00 0.00 84 1011.0
20260902082500 57 300 0.0 0.0 0.00 0.00 0.00 83 1010.9
20260902081957 57 300 0.0 0.0 0.00 0.00 0.00 84 1010.9
20260902081450 57 300 0.0 0.0 0.00 0.00 0.00 83 1010.9
20260902080952 57 300 0.0 0.0 0.00 0.00 0.00 84 1010.9
20260902080451 58 300 0.0 0.0 0.00 0.00 0.00 84 1010.7
20260902080216 58 300 0.0 0.0 0.00 0.00 0.00 84 1010.9
20260902075453 58 300 0.0 0.0 0.00 0.00 0.00 83 1010.9
20260902074951 58 300 0.0 0.0 0.00 0.00 0.00 83 1011.1
20260902074446 58 300 0.0 0.0 0.00 0.00 0.00 83 1011.1
20260902074208 58 300 0.0 0.0 0.00 0.00 0.00 83 1011.1
20260902073448 58 300 0.0 0.0 0.00 0.00 0.00 83 1011.2
20260902072947 58 300 0.0 0.0 0.00 0.00 0.00 82 1011.2
20260902072706 58 300 0.0 0.0 0.00 0.00 0.00 83 1011.1
20260902071934 58 300 0.0 0.0 0.00 0.00 0.00 82 1011.2
20260902071427 58 300 0.0 0.0 0.00 0.00 0.00 82 1011.2
20260902070930 58 300 0.0 0.0 0.00 0.00 0.00 80 1011.4
20260902070911 58 300 0.0 0.0 0.00 0.00 0.00 80 1011.4
20260902065929 59 300 0.0 0.0 0.00 0.00 0.00 78 1011.2
20260902065654 59 300 0.0 0.0 0.00 0.00 0.00 76 1011.4
20260902065154 59 300 0.0 0.0 0.00 0.00 0.00 75 1011.4
20260902064635 59 300 0.0 0.0 0.00 0.00 0.00 76 1011.2
20260902063920 60 300 0.0 0.0 0.00 0.00 0.00 75 1011.4
20260902063422 60 300 0.0 0.0 0.00 0.00 0.00 76 1011.4
20260902063138 60 300 0.0 0.0 0.00 0.00 0.00 76 1011.4
20260902062419 60 300 0.0 0.0 0.00 0.00 0.00 75 1011.5
20260902061921 61 300 0.0 0.0 0.00 0.00 0.00 73 1011.4
20260902061414 61 300 0.0 0.0 0.00 0.00 0.00 76 1011.4
20260902060915 61 300 0.0 0.0 0.00 0.00 0.00 73 1011.5
20260902060410 62 300 0.0 0.0 0.00 0.00 0.00 72 1011.5
20260902060352 62 300 0.0 0.0 0.00 0.00 0.00 72 1011.6
20260902055845 62 300 0.0 0.0 0.00 0.00 0.00 71 1011.6
20260902054856 63 300 0.0 0.0 0.00 0.00 0.00 69 1011.6
20260902054350 63 300 0.0 0.9 0.00 0.00 0.00 68 1011.6
20260902053848 64 300 0.0 0.9 0.00 0.00 0.00 66 1011.6
20260902053348 64 300 0.0 0.0 0.00 0.00 0.00 64 1011.6
20260902052848 65 300 0.0 0.0 0.00 0.00 0.00 62 1011.7
20260902052341 65 300 0.0 0.0 0.00 0.00 0.00 61 1011.7
20260902052057 66 300 0.0 0.9 0.00 0.00 0.00 61 1011.7
20260902051337 66 300 0.0 0.9 0.00 0.00 0.00 60 1011.8
20260902051100 67 227 0.0 0.9 0.00 0.00 0.00 56 1011.8
20260902050336 67 227 0.0 1.7 0.00 0.00 0.00 55 1011.7
20260902045840 67 225 0.0 6.1 0.00 0.00 0.00 55 1011.8
20260902045322 67 218 0.0 6.1 0.00 0.00 0.00 54 1011.8
20260902044825 68 169 0.0 3.5 0.00 0.00 0.00 59 1011.7
20260902044548 68 159 0.0 7.0 0.00 0.00 0.00 51 1011.7
20260902043821 68 122 0.0 7.0 0.00 0.00 0.00 53 1011.8
20260902043318 69 76 0.0 0.0 0.00 0.00 0.00 52 1011.8
20260902042820 69 76 0.0 0.9 0.00 0.00 0.00 52 1011.8
20260902042319 69 76 0.0 5.2 0.00 0.00 0.00 49 1011.7
20260902041817 69 40 0.0 8.7 0.00 0.00 0.00 52 1011.7